GFSCGP_sfc_dewp_345.txt.gz
Dewpoint
62 56 53 49 55 58 55 51 51 51 53 50 52 58 57 59 57 58 57 58 60 60 55 57 52 53 57 59 61 61 62 67 67 68 68 66 65 66 66 67 67 70 70 71
55 55 54 48 54 53 54 48 45 46 50 51 52 53 56 57 57 59 56 60 60 61 61 57 56 54 57 59 59 62 60 68 67 67 66 66 64 66 65 66 68 70 71 72
54 51 50 49 48 50 48 42 41 36 48 51 50 50 52 56 58 59 58 61 60 59 59 60 58 56 57 58 60 62 62 68 66 67 65 65 67 66 66 66 69 70 72 72
54 53 51 48 43 36 37 42 32 34 42 42 48 45 51 49 48 50 51 59 57 61 62 63 62 60 58 59 59 61 64 67 65 66 64 62 61 65 66 66 71 73 74 74
52 47 44 42 40 34 32 35 33 36 44 42 43 39 41 50 46 48 44 48 52 56 59 63 60 60 60 62 62 62 63 66 64 65 64 63 65 65 72 73 73 73 73 73
43 46 47 45 32 34 39 40 42 40 48 46 39 39 40 48 43 40 45 46 51 54 58 62 63 63 62 64 64 65 65 65 65 64 68 66 68 70 70 70 70 70 71 71
45 44 44 43 32 39 34 32 34 40 35 39 36 35 37 41 41 40 42 44 52 53 51 58 61 62 67 70 70 70 68 66 68 68 66 70 70 69 68 67 67 67 68 68
44 40 42 41 36 35 33 38 30 29 29 25 33 32 38 41 41 40 42 45 54 51 52 58 59 66 66 70 70 68 68 68 68 70 69 70 68 67 69 67 67 67 67 68
44 41 43 42 30 32 30 28 32 26 25 25 24 30 36 35 33 34 35 38 48 53 54 55 62 66 69 67 68 69 66 64 71 72 69 68 67 67 66 66 66 67 67 67
44 36 27 35 36 32 28 32 31 30 28 21 22 28 30 32 33 35 33 44 45 53 55 56 59 65 67 67 66 66 71 71 72 70 71 69 69 68 67 67 65 65 64 66
35 28 22 27 31 29 28 32 28 20 24 22 23 23 35 32 31 30 44 48 51 57 59 60 63 66 66 68 69 69 70 69 70 70 70 69 69 68 67 64 64 64 65 65
29 18 18 19 21 22 26 21 20 23 19 22 23 22 32 33 32 45 49 49 59 62 62 63 64 65 68 68 68 69 68 69 71 70 70 69 69 68 64 64 64 63 64 65
30 25 20 21 21 20 21 22 43 21 21 21 24 24 32 33 42 44 52 62 63 63 62 62 64 65 66 67 67 66 66 68 69 70 70 69 68 66 65 65 64 64 65 66
36 18 19 18 20 23 24 24 25 27 23 26 20 22 28 43 45 48 51 61 62 63 63 61 63 65 65 65 65 65 65 66 67 68 70 69 68 67 66 66 66 66 66 65
28 29 32 25 26 26 27 27 27 26 26 28 23 25 43 46 48 49 49 49 52 63 62 62 63 64 65 65 64 65 64 65 66 68 69 68 68 66 67 66 67 66 66 66
31 34 40 34 33 32 30 29 28 27 25 25 26 35 44 45 46 48 48 47 47 58 62 63 63 64 65 64 64 64 63 64 65 66 65 66 66 68 67 66 65 65 65 65
30 35 36 35 35 33 31 30 29 28 28 27 28 32 45 46 48 47 54 55 55 55 63 63 63 64 65 65 64 63 63 63 64 64 64 64 64 64 64 64 64 63 64 64
31 36 38 32 38 31 32 32 29 35 31 36 37 44 47 47 50 54 54 53 52 52 53 61 64 65 65 65 65 64 64 63 64 64 64 64 63 63 64 63 63 63 63 63
29 34 33 33 33 33 33 32 35 36 39 44 44 45 49 49 47 54 54 56 54 54 53 56 65 64 65 66 65 65 64 63 64 63 63 63 63 63 63 62 63 64 64 63
33 40 40 36 35 32 36 34 39 37 37 46 46 46 45 45 43 49 53 51 49 52 57 63 65 65 65 66 65 64 64 63 63 63 63 64 63 63 62 63 63 63 64 63
41 43 36 39 36 36 40 42 40 36 43 47 47 47 46 45 48 49 48 48 50 55 57 64 65 65 65 66 65 63 64 63 64 63 64 64 64 63 63 64 62 63 62 61
38 37 37 40 41 38 45 43 43 48 48 46 46 45 46 47 48 47 49 52 54 55 56 65 65 65 67 66 65 63 63 64 63 64 63 62 63 62 63 62 62 62 61 61
39 42 42 42 43 50 44 44 46 46 46 46 46 47 47 47 48 48 51 51 53 54 57 63 65 66 66 66 66 64 64 64 64 63 62 63 63 64 64 64 61 60 60 59
39 41 41 43 45 47 48 49 49 50 45 45 46 47 47 48 48 49 51 53 54 58 60 63 62 62 63 66 66 65 65 66 65 63 63 63 62 61 61 61 61 60 59 59
38 38 41 42 44 43 46 47 46 47 47 46 47 48 48 50 51 50 53 55 60 60 63 61 59 58 56 65 65 65 65 65 64 63 62 62 61 60 60 60 59 60 59 58
36 36 36 35 42 45 44 47 50 49 49 49 48 47 48 49 50 52 53 58 58 58 59 63 63 59 58 65 65 65 66 64 61 61 60 59 59 59 58 59 59 57 55 54

GFSCGP_sfc_dewp_351.txt.gz
Dewpoint
60 54 52 52 52 55 52 52 51 52 53 50 51 52 53 56 59 59 57 57 61 58 55 53 53 54 56 59 63 64 64 66 66 66 66 66 65 66 66 66 68 68 68 67
52 52 49 53 53 53 53 51 50 51 52 51 53 50 54 58 58 58 57 58 59 60 60 57 54 54 55 57 62 64 64 66 66 66 65 65 65 65 65 66 67 68 68 67
48 49 53 53 52 51 51 50 49 47 52 52 51 47 49 57 58 57 56 57 57 58 58 59 53 53 55 56 61 62 63 65 66 66 66 65 65 64 64 64 65 66 68 68
51 52 51 51 50 51 48 51 50 50 49 46 48 41 46 52 55 57 57 57 57 57 59 60 59 51 53 55 58 61 63 66 67 66 66 64 63 62 62 62 64 67 69 69
47 50 45 44 45 51 48 42 50 48 44 42 47 42 38 52 52 54 55 56 57 57 58 59 60 56 53 55 57 60 63 66 64 66 65 65 63 63 64 65 65 67 70 71
51 51 46 44 46 48 43 40 39 43 42 38 41 39 34 45 48 47 47 49 51 55 59 59 59 61 59 57 58 62 61 64 64 66 65 64 63 63 64 68 69 70 70 71
42 44 44 46 43 37 34 32 29 31 33 31 39 36 36 41 46 45 46 49 52 56 58 59 60 61 62 59 59 61 62 61 66 67 65 65 65 64 64 66 69 70 69 69
39 36 42 44 41 35 34 29 27 29 27 26 38 37 37 41 46 45 47 48 53 55 56 58 60 62 62 63 62 62 60 60 66 66 66 66 65 66 66 66 68 70 68 68
43 38 43 37 41 36 30 26 32 26 31 22 28 34 40 40 41 41 44 53 55 57 58 59 61 62 64 65 66 65 64 64 65 66 66 67 66 66 66 65 67 67 67 67
44 37 35 19 29 27 27 30 27 19 18 21 24 28 35 36 37 36 39 52 54 58 60 61 63 63 65 66 66 67 66 65 66 67 66 67 67 66 66 66 66 67 66 67
35 35 20 19 19 19 27 27 20 19 20 16 18 20 27 35 36 33 43 52 55 58 61 62 63 65 66 67 66 66 67 67 67 65 67 68 67 66 65 66 66 66 65 65
45 23 21 18 21 21 27 27 21 22 20 19 19 19 32 34 32 39 50 55 58 62 63 64 65 66 66 66 66 66 66 66 67 68 69 68 66 66 66 65 66 66 65 65
25 18 20 18 10 17 21 24 27 22 23 19 18 22 41 45 45 49 55 58 60 61 62 63 64 65 65 65 64 64 64 65 65 64 68 69 68 66 65 64 64 64 64 64
34 17 20 18 13 19 21 27 27 26 25 26 23 23 40 46 50 56 58 59 59 60 61 62 62 63 64 64 64 63 63 63 63 64 64 67 69 67 65 62 62 64 65 64
25 26 19 20 19 23 25 29 30 30 27 25 25 24 29 46 52 56 58 59 59 60 61 61 61 62 63 63 63 62 61 62 62 62 64 67 69 68 67 65 64 64 64 63
31 27 29 30 31 33 31 30 30 28 28 27 28 29 39 48 49 50 54 57 58 60 61 61 61 62 64 63 63 62 61 61 62 64 64 67 67 67 66 65 65 64 64 64
28 28 28 26 28 29 26 27 25 27 30 30 34 36 44 45 47 46 49 50 52 57 60 62 62 63 63 64 64 62 61 61 61 64 64 66 66 66 66 65 65 65 64 65
29 28 30 28 33 27 27 28 28 28 33 34 35 38 45 47 47 53 53 52 52 55 60 61 62 62 64 64 63 62 61 61 62 63 64 64 65 65 65 65 65 65 65 65
30 29 29 28 27 29 30 31 32 32 33 40 41 46 48 53 52 51 53 52 51 51 52 54 56 59 63 64 63 62 61 60 61 61 62 63 64 64 64 63 63 63 64 64
37 34 32 33 32 28 33 35 37 35 33 44 46 47 50 48 47 49 51 54 52 47 48 52 58 62 63 63 63 62 61 59 60 60 60 61 63 63 63 63 63 63 63 63
33 33 32 33 32 34 37 42 41 34 34 46 47 47 47 47 46 44 47 52 48 47 49 57 62 63 64 63 63 62 60 60 61 61 61 61 61 61 61 63 63 63 63 63
34 34 35 35 35 33 40 44 38 40 45 47 46 45 45 44 44 46 48 48 46 52 54 57 62 63 63 63 63 62 61 62 62 61 61 61 61 62 62 61 61 61 61 62
35 34 34 34 37 37 42 46 45 47 45 46 45 45 45 43 44 45 45 47 49 50 53 58 62 63 63 63 64 62 62 62 62 61 61 60 60 60 60 60 59 60 60 61
41 37 32 31 32 36 40 40 43 44 43 44 45 44 45 44 46 46 48 48 50 50 54 58 63 62 63 64 64 64 62 62 62 61 60 59 59 59 59 59 59 60 59 60
36 34 31 32 34 34 35 39 43 43 44 43 43 44 44 46 45 46 47 49 51 51 53 61 62 63 63 63 63 64 63 62 62 61 61 60 60 59 59 59 60 59 59 58
35 31 33 34 35 33 35 40 44 43 44 44 44 44 45 45 45 46 48 50 51 52 56 61 62 62 62 61 61 63 63 63 62 61 61 61 61 60 60 59 58 56 55 52

GFSCGP_sfc_dewp_354.txt.gz
Dewpoint
60 54 52 51 53 54 52 51 50 51 53 51 51 53 53 57 59 58 59 57 57 57 56 57 57 57 57 60 64 66 66 67 67 68 68 67 66 67 68 69 69 70 69 69
51 51 52 52 52 52 52 50 48 50 52 50 51 51 53 55 57 58 58 58 58 60 60 59 56 56 56 57 62 64 66 66 66 67 67 67 67 67 67 68 69 69 69 69
49 46 53 53 52 51 51 49 49 48 52 52 51 46 49 56 58 57 57 57 57 57 59 60 59 55 55 58 60 64 66 67 66 67 67 66 67 66 66 66 66 68 70 69
50 51 50 51 51 51 47 51 50 49 49 44 48 41 44 48 51 56 57 58 57 57 58 59 60 55 55 56 60 63 65 67 67 67 67 66 64 65 65 65 66 67 69 69
45 51 49 47 45 51 46 41 50 50 44 42 46 44 44 50 45 47 51 55 57 58 58 57 59 60 54 57 58 62 64 66 67 67 67 66 66 66 68 66 66 67 69 70
50 52 47 47 46 50 43 40 37 41 41 39 39 43 39 42 44 47 49 50 53 54 56 59 60 61 59 56 58 61 63 64 66 67 67 67 66 67 66 66 66 67 68 70
42 42 44 46 43 39 34 31 28 28 31 34 34 41 41 41 43 48 47 47 50 55 57 59 61 61 62 59 59 61 62 63 66 66 66 67 67 67 66 66 67 68 69 70
40 35 41 45 41 40 34 28 26 26 24 26 38 38 39 41 42 48 47 50 52 53 54 57 59 62 62 63 62 62 62 62 64 66 67 67 67 67 67 66 67 68 70 70
41 37 41 41 38 38 34 26 32 25 22 21 28 31 37 41 45 46 46 48 48 53 57 59 62 62 64 64 64 63 63 63 64 66 66 67 67 66 66 67 68 69 68 69
42 36 33 24 24 23 35 28 29 22 19 22 18 27 33 39 41 43 42 46 50 58 60 61 61 62 64 66 67 67 66 66 66 66 67 67 67 67 66 67 67 67 68 68
37 35 19 19 18 21 26 28 21 20 19 16 17 19 33 33 37 41 40 44 53 57 59 60 62 64 66 66 67 67 67 67 67 67 67 67 67 67 66 67 67 68 67 67
42 26 20 19 21 22 25 27 22 25 23 19 19 21 27 42 39 38 37 48 55 59 60 62 64 65 66 66 66 67 67 67 67 67 69 70 68 66 66 67 67 67 66 66
33 22 23 24 18 16 22 26 23 23 24 21 19 24 29 44 42 37 44 54 58 61 62 63 64 65 66 66 66 66 65 65 65 65 65 68 69 67 66 66 66 66 66 66
34 19 25 24 23 17 20 24 28 27 27 26 23 26 28 30 43 47 53 57 59 61 62 62 62 64 64 65 65 65 64 64 64 64 64 64 66 67 66 66 64 63 65 65
25 26 18 19 19 21 22 24 30 28 27 25 25 26 28 30 39 48 56 59 59 59 60 61 61 62 63 64 64 64 64 63 63 63 64 65 67 68 66 63 63 63 64 65
30 27 31 27 30 26 30 32 31 30 30 28 28 28 31 35 50 54 57 58 58 59 60 61 61 62 62 64 64 64 63 63 63 63 64 65 67 68 66 65 64 64 64 64
28 30 30 28 29 29 27 28 29 27 27 28 30 32 42 47 49 52 53 55 57 57 57 60 62 62 63 63 64 64 63 63 62 62 64 64 66 66 66 66 65 64 64 64
29 29 30 29 32 27 28 30 28 27 28 32 34 35 41 48 50 50 51 51 52 53 57 60 61 63 63 64 64 64 64 62 62 62 63 64 65 66 66 65 65 64 64 64
30 30 29 28 28 30 30 32 35 35 33 37 38 39 48 54 53 51 55 55 54 55 56 58 60 62 63 63 64 64 62 62 61 62 62 64 64 64 65 65 65 65 65 65
36 34 32 32 30 28 34 37 43 39 35 40 46 44 50 51 46 48 55 56 54 54 54 54 54 56 58 61 64 63 62 61 61 62 62 63 63 64 64 64 63 64 64 64
34 33 32 33 32 34 37 39 44 36 38 42 47 48 52 50 49 48 49 51 54 54 53 51 53 59 62 63 63 63 62 62 62 62 62 62 63 63 64 64 63 63 63 64
34 34 35 35 35 31 39 42 40 43 45 47 48 49 49 51 48 47 48 50 51 52 52 54 57 61 63 64 63 63 62 63 62 62 62 62 62 62 62 63 63 63 63 62
36 36 35 35 35 40 40 44 44 46 47 47 47 47 48 47 46 47 48 49 50 51 52 53 59 61 62 63 64 64 64 63 62 62 62 62 62 62 62 62 62 62 62 62
38 38 34 33 35 35 36 38 41 44 44 45 46 46 48 46 47 47 49 50 51 51 52 53 56 59 61 63 64 64 64 63 63 62 62 62 61 61 61 62 62 61 62 62
38 36 33 33 35 37 37 39 40 42 46 46 46 47 46 48 48 49 48 50 51 52 53 55 57 59 61 63 64 65 64 63 62 62 62 62 61 60 61 61 61 61 62 61
35 32 35 35 38 37 37 39 41 46 46 47 46 46 48 48 48 50 50 51 52 52 54 55 57 59 61 63 64 65 65 63 63 62 62 62 61 61 61 60 61 56 56 52

GFSCGP_sfc_dewp_357.txt.gz
Dewpoint
59 54 50 50 53 51 51 50 49 50 52 50 50 52 52 56 57 55 55 55 56 57 57 59 59 60 61 65 68 69 70 72 70 69 68 67 67 67 68 68 70 70 70 69
52 50 50 52 52 51 51 50 48 50 52 50 50 50 51 54 56 57 57 56 56 56 57 58 59 60 60 62 66 69 71 72 71 69 70 68 67 68 68 68 70 71 71 71
51 50 50 51 51 51 49 49 48 46 51 52 51 47 48 53 56 57 57 57 57 57 58 59 60 60 59 61 64 68 71 72 72 72 69 70 69 69 68 68 68 70 72 72
52 52 50 49 49 50 44 50 49 48 47 42 49 40 49 47 51 55 57 58 57 57 58 59 61 62 61 59 61 66 70 71 71 73 71 71 67 66 67 68 68 70 72 71
48 49 50 48 46 50 45 44 48 49 46 44 46 42 44 47 46 47 49 55 56 57 58 58 58 60 62 61 60 62 68 70 71 72 71 70 69 68 68 68 72 73 72 71
50 51 48 46 46 50 45 42 43 44 45 40 39 43 39 41 45 44 47 49 52 55 58 59 60 62 63 62 60 61 67 71 70 71 72 72 72 70 68 70 68 68 68 69
46 43 45 48 43 40 35 36 31 32 32 31 36 43 42 44 42 47 47 48 50 54 56 58 61 62 63 63 61 61 66 69 69 70 70 72 72 72 71 71 68 69 68 68
44 34 40 44 42 41 36 32 29 28 22 25 41 39 36 44 41 43 47 50 53 53 54 56 58 62 63 64 65 63 64 67 68 68 70 72 73 69 70 70 70 68 67 68
42 37 38 41 30 39 36 34 30 26 26 24 28 36 34 42 44 46 48 49 50 49 55 58 60 62 65 65 66 66 66 67 67 67 69 71 72 72 70 71 71 68 70 69
44 38 32 22 25 28 32 31 26 27 26 24 23 28 24 38 37 45 47 47 50 51 57 60 61 62 64 66 69 69 69 70 70 70 70 70 71 71 71 71 71 70 70 71
43 40 24 25 24 24 29 28 25 23 22 25 23 22 36 35 37 40 41 47 49 52 57 59 60 63 66 67 69 70 70 71 71 72 72 72 71 71 71 70 70 70 70 71
39 31 25 22 23 20 25 28 26 28 30 25 25 25 26 36 42 44 39 43 47 51 59 61 62 65 67 68 70 70 71 71 71 70 70 70 70 71 71 70 70 70 70 70
37 34 23 24 21 22 22 28 27 25 26 32 28 27 32 37 38 40 44 44 49 55 61 63 66 66 67 68 69 69 70 70 69 68 68 68 68 69 69 70 70 69 69 68
40 24 28 22 29 25 26 24 29 29 29 28 27 30 33 34 37 37 40 48 53 59 62 63 65 66 67 68 69 69 69 69 69 68 68 68 67 68 69 70 69 69 67 66
27 30 29 27 27 20 23 25 27 30 31 29 28 28 30 35 39 40 47 54 57 60 62 63 63 64 66 66 67 68 69 69 69 68 68 67 68 68 70 68 68 65 65 66
30 35 32 30 29 27 27 28 31 32 32 32 31 32 33 37 40 47 52 56 59 60 61 62 63 64 65 66 67 67 68 69 69 68 68 67 67 67 69 67 64 64 64 65
34 38 37 32 32 31 29 30 30 31 31 30 28 32 37 41 45 47 50 57 58 59 61 62 63 64 65 66 68 67 68 69 69 68 67 67 67 67 68 67 65 65 65 65
40 40 38 31 34 28 29 37 33 32 34 36 38 42 43 44 45 47 51 54 57 58 59 59 61 64 66 65 66 68 67 68 68 68 67 66 66 66 67 67 65 65 66 65
33 37 36 33 31 32 32 34 35 39 38 40 41 45 46 50 51 49 53 55 56 56 57 59 62 62 65 64 66 67 67 67 67 67 66 66 66 65 67 67 66 66 66 65
36 41 35 36 32 29 35 36 41 41 38 41 43 44 47 50 43 43 52 55 57 58 58 58 57 57 59 62 64 65 66 67 67 67 67 66 66 65 64 65 66 66 67 67
38 40 36 36 34 34 37 39 43 35 39 44 43 48 50 50 51 52 51 51 54 56 58 59 58 56 59 63 65 66 66 67 68 68 67 66 66 65 65 66 65 64 64 65
38 40 38 39 38 33 38 36 34 41 45 44 47 48 50 51 54 54 54 52 52 54 54 55 57 59 62 64 66 66 67 69 68 68 67 66 66 65 63 66 65 65 65 64
39 40 40 41 39 44 39 41 42 44 44 45 47 47 49 50 50 51 52 54 54 54 56 56 57 59 61 63 65 65 68 68 68 68 67 67 66 66 65 64 63 64 64 63
43 42 40 40 41 38 40 41 43 44 45 47 48 47 47 48 50 50 53 54 54 55 55 55 58 59 60 62 63 64 66 68 67 68 67 66 66 65 64 63 62 61 63 63
39 41 38 39 40 45 41 44 45 46 49 50 49 48 48 50 52 52 54 57 57 58 58 59 60 61 61 63 64 63 65 68 65 68 66 66 65 63 64 63 63 62 63 61
43 43 40 37 47 46 46 47 48 50 50 50 51 52 54 55 55 55 56 57 58 57 58 59 59 60 60 62 63 66 66 67 67 66 63 63 64 64 62 61 62 58 55 54

GFSCGP_sfc_dewp_360.txt.gz
Dewpoint
57 52 47 48 50 50 49 46 45 46 50 49 48 48 49 52 54 53 54 55 56 57 57 58 60 61 62 63 66 69 71 73 70 69 68 65 64 66 65 65 67 68 67 66
52 47 49 50 50 49 47 44 41 46 49 49 46 38 46 50 53 53 54 53 54 55 56 58 59 60 60 62 65 68 71 72 72 69 69 67 64 64 66 66 68 70 70 69
50 48 50 49 48 46 41 41 40 40 47 49 48 33 37 50 52 54 54 54 54 54 55 57 59 61 60 62 63 66 70 72 73 73 69 69 69 66 65 67 67 69 71 72
48 50 49 47 43 44 38 45 43 41 41 32 46 30 38 34 35 49 50 54 52 54 57 58 59 60 61 61 62 65 68 72 72 74 72 74 68 68 66 68 68 68 71 72
47 47 46 45 43 45 43 42 41 43 41 37 39 32 38 40 34 32 32 39 45 50 53 55 56 59 60 61 62 63 67 70 72 73 73 70 72 68 68 68 70 74 70 73
48 49 48 44 45 45 45 41 43 42 37 33 34 36 32 34 35 33 33 35 40 45 52 55 57 60 61 62 62 62 67 71 72 72 72 74 75 73 69 69 68 68 69 70
43 42 44 46 42 45 43 34 30 28 27 26 35 35 35 39 40 39 37 37 39 47 52 55 58 60 62 63 64 63 67 71 72 72 72 72 73 74 74 73 69 71 68 68
37 34 39 40 34 36 35 32 27 28 23 22 36 30 34 38 42 41 43 46 47 52 49 43 46 55 61 64 67 66 67 70 71 71 72 73 74 70 70 72 70 69 68 68
37 33 30 27 23 37 37 34 32 25 24 20 23 26 27 36 36 40 44 46 47 50 47 46 49 56 61 65 65 66 69 71 70 70 71 73 73 73 72 74 74 70 74 70
44 37 24 21 28 30 31 32 25 26 26 25 23 26 23 28 31 37 35 40 43 45 49 50 51 59 60 61 65 67 69 71 72 72 73 72 73 74 74 74 73 73 72 72
42 38 26 26 23 22 26 28 28 23 24 23 21 21 30 33 34 35 35 34 38 46 51 53 54 58 61 62 66 69 71 73 73 74 74 74 73 73 73 72 72 72 72 72
42 29 25 22 23 23 22 24 22 24 26 28 25 22 27 32 33 33 35 39 40 45 48 55 57 62 65 66 68 70 72 73 73 73 73 72 71 71 70 70 70 71 71 72
41 28 23 24 21 23 22 23 25 23 22 26 24 23 26 31 31 33 36 37 44 49 50 55 61 64 65 66 68 68 69 69 71 72 70 70 70 70 70 69 70 71 71 71
46 26 25 20 26 28 29 27 28 27 23 24 23 27 30 29 32 34 37 42 49 51 53 55 62 65 66 67 68 69 68 68 69 70 69 69 70 69 68 69 69 71 71 70
35 31 30 26 25 27 27 26 26 28 28 27 29 29 32 34 36 36 41 46 51 53 55 57 61 64 64 66 68 68 67 68 70 70 70 70 71 70 69 70 70 71 70 67
27 32 32 29 25 26 28 28 26 27 28 30 30 31 35 40 40 41 44 45 51 55 57 61 63 62 63 64 64 61 65 68 70 70 70 71 71 70 70 69 70 69 66 65
29 31 34 31 29 30 28 27 27 26 28 30 30 39 43 45 47 47 46 47 49 54 58 62 62 61 61 59 61 61 62 67 70 70 70 71 71 70 69 69 69 68 66 66
35 42 36 30 32 28 29 35 34 33 34 39 40 41 43 44 45 43 50 49 52 53 57 59 60 60 62 57 56 62 63 66 68 68 69 70 70 70 69 68 68 67 66 65
32 33 30 32 26 29 28 34 35 37 37 39 39 38 37 39 41 38 51 52 55 56 56 56 57 60 62 61 61 63 64 64 65 66 68 69 70 69 68 67 68 67 66 66
34 41 35 32 32 30 35 37 37 40 35 40 38 38 36 39 34 34 53 51 50 53 57 57 56 56 57 62 62 63 63 64 65 67 69 70 70 70 68 68 68 68 67 66
36 40 35 33 32 31 38 36 37 37 39 41 38 40 39 43 49 51 53 53 53 52 52 53 53 54 57 61 63 64 65 65 66 68 69 70 70 70 69 68 67 68 67 67
36 35 30 34 37 34 37 36 37 43 43 40 40 40 43 46 47 48 49 52 53 53 53 54 55 56 59 61 63 64 66 67 67 69 69 70 70 68 65 68 67 67 67 64
37 38 39 40 39 43 39 40 39 43 44 44 46 45 47 45 45 48 50 53 54 55 56 55 56 58 60 60 61 60 66 68 68 68 69 69 69 68 68 67 65 64 66 66
42 44 40 43 43 41 40 38 43 47 48 49 49 49 49 50 51 53 55 56 57 57 57 56 58 58 59 60 62 61 63 65 66 67 68 69 66 64 66 64 64 62 62 62
35 41 39 39 38 43 32 49 50 50 50 50 50 50 52 53 54 55 55 57 57 57 57 58 59 59 60 61 61 61 62 62 63 65 66 61 61 66 67 65 62 62 63 60
40 38 33 32 48 49 50 52 52 53 53 53 52 52 53 53 53 54 54 55 56 57 58 59 60 60 60 61 61 63 63 63 64 63 62 63 65 61 62 62 62 58 56 54